FBT98CS LEPA-LFPG

Flight info

Callsign FBT98CS
Flight time 1h 34m
Altitude 40000
Route GALAT N861 OLOXO DCT OKABI DCT TOU DCT POI/N0456F300 DCT PEPAX UT182 KEPER
Aircraft B738/M-SDE2E3FGHIRWXY/LB1

Departure

Time 2026-05-08 18:50
Airport Palma de Mallorca Airport (LEPA)

Arrival

Time 2026-05-08 20:25
Airport Charles de Gaulle International Airport (LFPG)
Time Latitude Longitude Altitude Speed Heading
2026-05-08 18:24 39.54421 2.73011 31 ft 0 kts 328°
2026-05-08 18:38 39.54418 2.73014 34 ft 2 kts 328°
2026-05-08 18:39 39.54404 2.73025 33 ft 2 kts 328°
2026-05-08 18:39 39.54390 2.73036 32 ft 2 kts 329°
2026-05-08 18:39 39.54375 2.73047 32 ft 2 kts 335°
2026-05-08 18:39 39.54361 2.73046 32 ft 2 kts 62°
2026-05-08 18:40 39.54354 2.73032 34 ft 1 kts 57°
2026-05-08 18:40 39.54354 2.73031 34 ft 0 kts 57°
2026-05-08 18:44 39.54354 2.73032 34 ft 1 kts 57°
2026-05-08 18:45 39.54364 2.73052 33 ft 4 kts 57°
2026-05-08 18:45 39.54382 2.73090 34 ft 6 kts 58°
2026-05-08 18:45 39.54404 2.73136 33 ft 6 kts 58°
2026-05-08 18:45 39.54419 2.73192 34 ft 7 kts 96°
2026-05-08 18:46 39.54384 2.73227 34 ft 7 kts 169°
2026-05-08 18:46 39.54348 2.73197 34 ft 7 kts 239°
2026-05-08 18:46 39.54324 2.73145 34 ft 7 kts 239°
2026-05-08 18:46 39.54300 2.73096 35 ft 6 kts 234°
2026-05-08 18:47 39.54274 2.73049 35 ft 6 kts 236°
2026-05-08 18:47 39.54240 2.73007 36 ft 8 kts 208°
2026-05-08 18:47 39.54183 2.73010 34 ft 8 kts 149°
2026-05-08 18:47 39.54167 2.73033 36 ft 2 kts 122°
2026-05-08 18:48 39.54152 2.73121 36 ft 15 kts 90°
2026-05-08 18:48 39.54153 2.73225 35 ft 9 kts 89°
2026-05-08 18:48 39.54162 2.73256 33 ft 1 kts 59°
2026-05-08 18:48 39.54166 2.73265 35 ft 0 kts 58°
2026-05-08 18:49 39.54166 2.73266 35 ft 0 kts 58°
2026-05-08 18:49 39.54290 2.73524 31 ft 75 kts 58°
2026-05-08 18:50 39.54693 2.74376 36 ft 142 kts 59°
2026-05-08 18:50 39.55241 2.75519 569 ft 152 kts 59°
2026-05-08 18:50 39.55605 2.76315 1078 ft 153 kts 62°
2026-05-08 18:50 39.56111 2.77473 1920 ft 149 kts 63°
2026-05-08 18:51 39.56579 2.78678 2704 ft 148 kts 66°
2026-05-08 18:51 39.57034 2.79936 3351 ft 158 kts 65°
2026-05-08 18:51 39.57642 2.81190 3880 ft 177 kts 56°
2026-05-08 18:51 39.58405 2.82594 4269 ft 202 kts 56°
2026-05-08 18:52 39.59217 2.84143 4705 ft 216 kts 58°
2026-05-08 18:52 39.60056 2.85842 5186 ft 230 kts 59°
2026-05-08 18:52 39.60907 2.87641 5925 ft 234 kts 59°
2026-05-08 18:52 39.61770 2.89477 6658 ft 242 kts 59°
2026-05-08 18:53 39.62729 2.91295 7417 ft 247 kts 43°
2026-05-08 18:53 39.64220 2.92375 8174 ft 248 kts
2026-05-08 18:53 39.65875 2.92219 9018 ft 242 kts 333°
2026-05-08 18:53 39.67126 2.90877 9902 ft 233 kts 297°
2026-05-08 18:54 39.67558 2.88880 10666 ft 231 kts 268°
2026-05-08 18:54 39.67496 2.86798 11548 ft 234 kts 272°
2026-05-08 18:54 39.67668 2.84724 12492 ft 233 kts 276°
2026-05-08 18:54 39.68097 2.82703 13513 ft 236 kts 293°
2026-05-08 18:55 39.70219 2.78822 14178 ft 291 kts 302°
2026-05-08 18:55 39.71456 2.76586 14448 ft 316 kts 301°
2026-05-08 18:55 39.72768 2.74184 14936 ft 334 kts 301°
2026-05-08 18:56 39.74138 2.71676 15549 ft 345 kts 301°
2026-05-08 18:56 39.75538 2.69074 16121 ft 357 kts 301°
2026-05-08 18:56 39.76956 2.66438 16887 ft 361 kts 301°
2026-05-08 18:56 39.78409 2.63768 17829 ft 361 kts 301°
2026-05-08 18:57 39.79881 2.61079 18514 ft 368 kts 301°
2026-05-08 18:57 39.81364 2.58338 19157 ft 372 kts 300°
2026-05-08 18:57 39.82849 2.55570 20001 ft 370 kts 300°
2026-05-08 18:57 39.84297 2.52845 20708 ft 374 kts 299°
2026-05-08 18:58 39.85784 2.50023 21277 ft 379 kts 299°
2026-05-08 18:58 39.87291 2.47183 22019 ft 381 kts 299°
2026-05-08 18:58 39.88821 2.44332 22613 ft 386 kts 299°
2026-05-08 18:58 39.90383 2.41413 22953 ft 397 kts 299°
2026-05-08 18:59 39.91964 2.38457 23595 ft 398 kts 299°
2026-05-08 18:59 39.93527 2.35536 24291 ft 395 kts 299°
2026-05-08 18:59 39.95087 2.32608 25023 ft 392 kts 299°
2026-05-08 18:59 39.96643 2.29696 25634 ft 392 kts 299°
2026-05-08 19:00 39.98208 2.26752 26083 ft 396 kts 299°
2026-05-08 19:00 39.99786 2.23784 26524 ft 400 kts 299°
2026-05-08 19:00 40.01377 2.20790 26985 ft 402 kts 299°
2026-05-08 19:00 40.02974 2.17777 27463 ft 404 kts 299°
2026-05-08 19:01 40.04568 2.14742 27940 ft 405 kts 298°
2026-05-08 19:01 40.06142 2.11737 28402 ft 406 kts 298°
2026-05-08 19:01 40.07747 2.08682 28858 ft 408 kts 298°
2026-05-08 19:01 40.09362 2.05617 29283 ft 410 kts 298°
2026-05-08 19:02 40.10987 2.02536 29696 ft 412 kts 299°
2026-05-08 19:02 40.12622 1.99452 30104 ft 414 kts 300°
2026-05-08 19:02 40.14650 1.96685 30412 ft 429 kts 314°
2026-05-08 19:02 40.17131 1.94528 30903 ft 437 kts 322°
2026-05-08 19:03 40.19946 1.92937 31424 ft 449 kts 334°
2026-05-08 19:03 40.23035 1.92065 31920 ft 455 kts 339°
2026-05-08 19:03 40.26164 1.91362 32304 ft 457 kts 340°
2026-05-08 19:03 40.29317 1.90700 32658 ft 458 kts 340°
2026-05-08 19:04 40.32459 1.90040 33073 ft 457 kts 339°
2026-05-08 19:04 40.35594 1.89363 33549 ft 454 kts 338°
2026-05-08 19:04 40.38665 1.88679 33999 ft 452 kts 338°
2026-05-08 19:04 40.41764 1.87972 34342 ft 451 kts 338°
2026-05-08 19:05 40.44859 1.87251 34611 ft 452 kts 338°
2026-05-08 19:05 40.47967 1.86520 34866 ft 453 kts 338°
2026-05-08 19:05 40.51072 1.85789 35167 ft 454 kts 338°
2026-05-08 19:05 40.54185 1.85058 35475 ft 454 kts 338°
2026-05-08 19:06 40.57296 1.84327 35757 ft 455 kts 338°
2026-05-08 19:06 40.60420 1.83593 36009 ft 456 kts 339°
2026-05-08 19:06 40.63546 1.82858 36274 ft 457 kts 339°
2026-05-08 19:06 40.66638 1.82132 36549 ft 457 kts 339°
2026-05-08 19:07 40.69780 1.81393 36803 ft 459 kts 339°
2026-05-08 19:07 40.72931 1.80651 37055 ft 460 kts 340°
2026-05-08 19:07 40.76092 1.79906 37307 ft 461 kts 340°
2026-05-08 19:07 40.79254 1.79160 37550 ft 462 kts 340°
2026-05-08 19:08 40.82393 1.78419 37793 ft 463 kts 340°
2026-05-08 19:08 40.85579 1.77666 38031 ft 464 kts 340°
2026-05-08 19:08 40.88774 1.76910 38254 ft 466 kts 341°
2026-05-08 19:08 40.91968 1.76154 38482 ft 467 kts 341°
2026-05-08 19:09 40.95173 1.75395 38725 ft 467 kts 341°
2026-05-08 19:09 40.98377 1.74635 38934 ft 467 kts 341°
2026-05-08 19:09 41.01584 1.73874 39136 ft 468 kts 341°
2026-05-08 19:09 41.04753 1.73122 39327 ft 468 kts 342°
2026-05-08 19:10 41.07991 1.72484 39519 ft 472 kts 345°
2026-05-08 19:10 41.11259 1.71997 39699 ft 474 kts 347°
2026-05-08 19:10 41.14546 1.71553 39896 ft 474 kts 347°
2026-05-08 19:10 41.17831 1.71086 40019 ft 475 kts 346°
2026-05-08 19:11 41.21126 1.70587 40014 ft 477 kts 346°
2026-05-08 19:11 41.27707 1.69567 40024 ft 474 kts 346°
2026-05-08 19:12 41.34253 1.68548 40028 ft 472 kts 346°
2026-05-08 19:12 41.40736 1.67543 40026 ft 470 kts 347°
2026-05-08 19:13 41.47245 1.66532 40018 ft 469 kts 347°
2026-05-08 19:13 41.53706 1.65523 40031 ft 469 kts 347°
2026-05-08 19:14 41.60210 1.64501 40025 ft 470 kts 347°
2026-05-08 19:14 41.66682 1.63483 40041 ft 472 kts 347°
2026-05-08 19:15 41.73235 1.62450 40029 ft 474 kts 347°
2026-05-08 19:15 41.79798 1.61415 40024 ft 475 kts 347°
2026-05-08 19:16 41.86356 1.60381 40013 ft 477 kts 347°
2026-05-08 19:16 41.92974 1.59336 40009 ft 479 kts 347°
2026-05-08 19:17 41.99612 1.58285 40004 ft 480 kts 347°
2026-05-08 19:17 42.06222 1.57237 40004 ft 480 kts 347°
2026-05-08 19:18 42.12875 1.56179 40029 ft 481 kts 347°
2026-05-08 19:18 42.19526 1.55118 40015 ft 481 kts 348°
2026-05-08 19:19 42.26127 1.54065 40031 ft 480 kts 347°
2026-05-08 19:19 42.32787 1.52998 40027 ft 481 kts 347°
2026-05-08 19:20 42.39441 1.51931 40021 ft 482 kts 348°
2026-05-08 19:20 42.46119 1.50859 40026 ft 482 kts 348°
2026-05-08 19:21 42.52764 1.49789 40008 ft 483 kts 347°
2026-05-08 19:21 42.59445 1.48724 40034 ft 481 kts 348°
2026-05-08 19:22 42.66078 1.47643 40011 ft 482 kts 347°
2026-05-08 19:22 42.72752 1.46566 40008 ft 483 kts 348°
2026-05-08 19:23 42.79405 1.45498 40014 ft 481 kts 348°
2026-05-08 19:23 42.86058 1.44428 40000 ft 478 kts 348°
2026-05-08 19:24 42.92700 1.43352 39987 ft 479 kts 348°
2026-05-08 19:24 42.99306 1.42279 39968 ft 480 kts 348°
2026-05-08 19:25 43.05932 1.41202 39964 ft 480 kts 348°
2026-05-08 19:25 43.12544 1.40124 39964 ft 480 kts 348°
2026-05-08 19:26 43.19198 1.39038 39956 ft 480 kts 348°
2026-05-08 19:26 43.25816 1.37955 39960 ft 481 kts 348°
2026-05-08 19:27 43.32461 1.36865 39962 ft 481 kts 348°
2026-05-08 19:27 43.39117 1.35771 39963 ft 482 kts 349°
2026-05-08 19:28 43.45748 1.34678 39966 ft 482 kts 349°
2026-05-08 19:28 43.52405 1.33579 39962 ft 482 kts 349°
2026-05-08 19:29 43.59079 1.32475 39969 ft 481 kts 349°
2026-05-08 19:29 43.65696 1.31378 39967 ft 481 kts 349°
2026-05-08 19:30 43.72275 1.29794 39981 ft 477 kts 343°
2026-05-08 19:30 43.78726 1.27599 39962 ft 476 kts 341°
2026-05-08 19:31 43.85156 1.25356 39957 ft 477 kts 342°
2026-05-08 19:31 43.91578 1.23170 39952 ft 477 kts 342°
2026-05-08 19:32 43.98008 1.21015 39952 ft 477 kts 342°
2026-05-08 19:32 44.04460 1.18858 39949 ft 477 kts 342°
2026-05-08 19:33 44.10923 1.16691 39946 ft 477 kts 342°
2026-05-08 19:33 44.17401 1.14512 39949 ft 478 kts 343°
2026-05-08 19:34 44.23840 1.12341 39947 ft 478 kts 343°
2026-05-08 19:34 44.30315 1.10152 39944 ft 478 kts 343°
2026-05-08 19:35 44.36754 1.07971 39941 ft 478 kts 343°
2026-05-08 19:35 44.43234 1.05771 39944 ft 478 kts 343°
2026-05-08 19:36 44.49691 1.03574 39942 ft 478 kts 343°
2026-05-08 19:36 44.56119 1.01381 39946 ft 477 kts 343°
2026-05-08 19:37 44.61506 0.99540 39940 ft 477 kts 343°
2026-05-08 19:37 44.69021 0.96966 39941 ft 476 kts 343°
2026-05-08 19:38 44.74377 0.95127 39941 ft 476 kts 343°
2026-05-08 19:38 44.80810 0.92914 39940 ft 475 kts 343°
2026-05-08 19:39 44.87192 0.90713 39942 ft 474 kts 343°
2026-05-08 19:39 44.93622 0.88490 39946 ft 474 kts 343°
2026-05-08 19:40 44.99983 0.86286 39942 ft 473 kts 343°
2026-05-08 19:40 45.06388 0.84061 39944 ft 473 kts 343°
2026-05-08 19:41 45.12794 0.81832 39936 ft 473 kts 343°
2026-05-08 19:41 45.19192 0.79599 39941 ft 473 kts 344°
2026-05-08 19:42 45.25551 0.77376 39937 ft 474 kts 344°
2026-05-08 19:42 45.31966 0.75128 39943 ft 474 kts 344°
2026-05-08 19:43 45.38382 0.72874 39948 ft 475 kts 344°
2026-05-08 19:43 45.44800 0.70614 39953 ft 475 kts 344°
2026-05-08 19:44 45.51184 0.68361 39951 ft 476 kts 344°
2026-05-08 19:44 45.57638 0.66078 39948 ft 476 kts 344°
2026-05-08 19:45 45.64028 0.63811 39951 ft 476 kts 344°
2026-05-08 19:45 45.70471 0.61522 39953 ft 476 kts 344°
2026-05-08 19:46 45.76900 0.59231 39943 ft 476 kts 344°
2026-05-08 19:46 45.86524 0.55792 39949 ft 476 kts 344°
2026-05-08 19:47 45.92931 0.53495 39948 ft 476 kts 344°
2026-05-08 19:47 45.99355 0.51187 39956 ft 475 kts 344°
2026-05-08 19:48 46.05774 0.48875 39953 ft 475 kts 344°
2026-05-08 19:48 46.12163 0.46569 39954 ft 475 kts 344°
2026-05-08 19:49 46.18569 0.44251 39964 ft 474 kts 344°
2026-05-08 19:49 46.24990 0.41921 39956 ft 474 kts 344°
2026-05-08 19:50 46.31419 0.39583 39974 ft 478 kts 344°
2026-05-08 19:50 46.37869 0.37232 39971 ft 482 kts 345°
2026-05-08 19:51 46.44403 0.34844 39968 ft 484 kts 345°
2026-05-08 19:51 46.50946 0.32448 39969 ft 484 kts 345°
2026-05-08 19:52 46.57530 0.30642 39967 ft 485 kts 356°
2026-05-08 19:52 46.64240 0.31456 39982 ft 485 kts 11°
2026-05-08 19:53 46.70831 0.33580 39966 ft 484 kts 13°
2026-05-08 19:53 46.77370 0.35708 39966 ft 483 kts 12°
2026-05-08 19:54 46.83949 0.37762 39973 ft 482 kts 12°
2026-05-08 19:54 46.90530 0.39787 39976 ft 481 kts 12°
2026-05-08 19:55 46.97038 0.41799 39979 ft 480 kts 12°
2026-05-08 19:55 47.03577 0.43829 39983 ft 479 kts 12°
2026-05-08 19:56 47.10119 0.44769 39978 ft 471 kts 356°
2026-05-08 19:56 47.16574 0.43374 39989 ft 467 kts 348°
2026-05-08 19:57 47.19782 0.42523 39716 ft 470 kts 348°
2026-05-08 19:57 47.23059 0.41662 38858 ft 478 kts 349°
2026-05-08 19:57 47.26293 0.40839 38050 ft 476 kts 349°
2026-05-08 19:57 47.29555 0.40037 37312 ft 473 kts 351°
2026-05-08 19:58 47.32816 0.39869 36981 ft 463 kts
2026-05-08 19:58 47.35959 0.40685 36707 ft 453 kts 15°
2026-05-08 19:58 47.38905 0.42249 36462 ft 458 kts 26°
2026-05-08 19:58 47.41761 0.44457 36228 ft 468 kts 28°
2026-05-08 19:59 47.44655 0.46782 35984 ft 475 kts 29°
2026-05-08 19:59 47.47568 0.49135 35733 ft 477 kts 28°
2026-05-08 19:59 47.50483 0.51482 35471 ft 476 kts 28°
2026-05-08 19:59 47.53405 0.53816 35221 ft 476 kts 28°
2026-05-08 20:00 47.56314 0.56128 35044 ft 473 kts 28°
2026-05-08 20:00 47.59183 0.58400 35006 ft 473 kts 28°
2026-05-08 20:00 47.65002 0.63003 34996 ft 473 kts 27°
2026-05-08 20:01 47.67911 0.65307 34531 ft 475 kts 27°
2026-05-08 20:01 47.70841 0.67631 33710 ft 475 kts 27°
2026-05-08 20:01 47.73756 0.69947 32789 ft 475 kts 28°
2026-05-08 20:01 47.76634 0.72236 31909 ft 474 kts 28°
2026-05-08 20:02 47.79535 0.74549 31369 ft 471 kts 28°
2026-05-08 20:02 47.82392 0.76829 31214 ft 458 kts 28°
2026-05-08 20:02 47.85156 0.79038 31069 ft 441 kts 28°
2026-05-08 20:02 47.87818 0.81169 31005 ft 425 kts 28°
2026-05-08 20:03 47.90362 0.83207 30798 ft 415 kts 27°
2026-05-08 20:03 47.92889 0.85232 30413 ft 410 kts 27°
2026-05-08 20:03 47.95414 0.87259 29765 ft 411 kts 28°
2026-05-08 20:03 47.97948 0.89294 28930 ft 413 kts 28°
2026-05-08 20:04 48.00514 0.91358 27680 ft 425 kts 28°
2026-05-08 20:04 48.03121 0.93456 26420 ft 436 kts 28°
2026-05-08 20:04 48.05826 0.95636 25185 ft 445 kts 28°
2026-05-08 20:04 48.08568 0.97850 24121 ft 449 kts 28°
2026-05-08 20:05 48.11319 1.00074 23198 ft 446 kts 28°
2026-05-08 20:05 48.14038 1.02276 22300 ft 442 kts 28°
2026-05-08 20:05 48.16730 1.04458 21402 ft 438 kts 28°
2026-05-08 20:05 48.19395 1.06621 20567 ft 434 kts 28°
2026-05-08 20:06 48.22044 1.08773 19764 ft 429 kts 28°
2026-05-08 20:06 48.24628 1.10875 18970 ft 426 kts 27°
2026-05-08 20:06 48.27235 1.12997 18141 ft 424 kts 27°
2026-05-08 20:06 48.29819 1.15103 17317 ft 420 kts 27°
2026-05-08 20:07 48.32367 1.17183 16604 ft 413 kts 27°
2026-05-08 20:07 48.34874 1.19232 15902 ft 407 kts 27°
2026-05-08 20:07 48.37346 1.21253 15168 ft 402 kts 27°
2026-05-08 20:07 48.39770 1.23238 14470 ft 397 kts 27°
2026-05-08 20:08 48.42185 1.25218 13941 ft 389 kts 27°
2026-05-08 20:08 48.44516 1.27131 13775 ft 371 kts 27°
2026-05-08 20:08 48.46707 1.28932 13637 ft 354 kts 27°
2026-05-08 20:08 48.48819 1.30669 13543 ft 338 kts 27°
2026-05-08 20:09 48.50778 1.32507 13427 ft 326 kts 39°
2026-05-08 20:09 48.52190 1.35097 13310 ft 316 kts 59°
2026-05-08 20:09 48.53202 1.38006 13013 ft 311 kts 63°
2026-05-08 20:09 48.54153 1.40888 12615 ft 310 kts 63°
2026-05-08 20:10 48.55125 1.43796 12225 ft 308 kts 62°
2026-05-08 20:10 48.56099 1.46673 11867 ft 306 kts 62°
2026-05-08 20:10 48.57143 1.49470 11497 ft 303 kts 51°
2026-05-08 20:10 48.58705 1.51552 11127 ft 299 kts 28°
2026-05-08 20:11 48.60524 1.52958 10815 ft 295 kts 24°
2026-05-08 20:11 48.62371 1.54289 10562 ft 293 kts 24°
2026-05-08 20:11 48.64211 1.55609 10354 ft 292 kts 24°
2026-05-08 20:11 48.66034 1.56948 10155 ft 288 kts 27°
2026-05-08 20:12 48.67738 1.58497 9958 ft 282 kts 31°
2026-05-08 20:12 48.69378 1.60082 9759 ft 278 kts 31°
2026-05-08 20:12 48.71005 1.61665 9577 ft 276 kts 31°
2026-05-08 20:12 48.72606 1.63226 9400 ft 277 kts 31°
2026-05-08 20:13 48.74236 1.64814 9236 ft 279 kts 32°
2026-05-08 20:13 48.75877 1.66411 9015 ft 281 kts 32°
2026-05-08 20:13 48.77523 1.68009 8823 ft 280 kts 32°
2026-05-08 20:13 48.79064 1.69803 8618 ft 280 kts 48°
2026-05-08 20:14 48.80201 1.72138 8472 ft 278 kts 55°
2026-05-08 20:14 48.81275 1.74586 8290 ft 277 kts 56°
2026-05-08 20:14 48.82330 1.77022 8126 ft 275 kts 56°
2026-05-08 20:14 48.83382 1.79458 7918 ft 276 kts 57°
2026-05-08 20:15 48.84423 1.81868 7678 ft 270 kts 57°
2026-05-08 20:15 48.85446 1.84230 7434 ft 266 kts 57°
2026-05-08 20:15 48.86454 1.86551 7203 ft 265 kts 57°
2026-05-08 20:15 48.87474 1.88889 6969 ft 264 kts 57°
2026-05-08 20:16 48.88492 1.91214 6738 ft 264 kts 57°
2026-05-08 20:16 48.89498 1.93501 6512 ft 263 kts 57°
2026-05-08 20:16 48.89843 1.94282 6431 ft 263 kts 57°
2026-05-08 20:16 48.90790 1.96423 6197 ft 267 kts 57°
2026-05-08 20:17 48.91840 1.98785 5974 ft 268 kts 57°
2026-05-08 20:17 48.92871 2.01094 5717 ft 259 kts 57°
2026-05-08 20:17 48.93863 2.03305 5468 ft 255 kts 57°
2026-05-08 20:17 48.94865 2.05537 5239 ft 256 kts 57°
2026-05-08 20:18 48.95860 2.07748 5045 ft 245 kts 57°
2026-05-08 20:18 48.96536 2.10022 5002 ft 232 kts 78°
2026-05-08 20:18 48.96874 2.12410 4993 ft 230 kts 80°
2026-05-08 20:18 48.97119 2.14816 4992 ft 230 kts 84°
2026-05-08 20:19 48.97279 2.17235 4996 ft 229 kts 85°
2026-05-08 20:19 48.97406 2.19653 4970 ft 228 kts 86°
2026-05-08 20:19 48.97521 2.21976 4788 ft 218 kts 86°
2026-05-08 20:19 48.97632 2.24233 4526 ft 208 kts 86°
2026-05-08 20:20 48.97739 2.26388 4239 ft 199 kts 86°
2026-05-08 20:20 48.97842 2.28433 3984 ft 189 kts 86°
2026-05-08 20:20 48.97939 2.30378 3738 ft 185 kts 86°
2026-05-08 20:20 48.98036 2.32328 3488 ft 183 kts 86°
2026-05-08 20:21 48.98095 2.34254 3178 ft 183 kts 87°
2026-05-08 20:21 48.98196 2.36168 2979 ft 180 kts 84°
2026-05-08 20:21 48.98322 2.38147 2781 ft 190 kts 84°
2026-05-08 20:21 48.98428 2.40144 2528 ft 189 kts 85°
2026-05-08 20:22 48.98519 2.42126 2260 ft 185 kts 86°
2026-05-08 20:22 48.98603 2.44046 1977 ft 182 kts 84°
2026-05-08 20:22 48.98715 2.45931 1697 ft 172 kts 84°
2026-05-08 20:22 48.98790 2.47107 1531 ft 163 kts 84°
2026-05-08 20:23 48.98900 2.49264 1280 ft 143 kts 85°
2026-05-08 20:23 48.98978 2.50711 1139 ft 137 kts 84°
2026-05-08 20:23 48.99050 2.52193 1005 ft 140 kts 85°
2026-05-08 20:23 48.99127 2.53690 781 ft 143 kts 83°
2026-05-08 20:24 48.99213 2.55139 532 ft 134 kts 83°
2026-05-08 20:24 48.99289 2.56528 396 ft 130 kts 83°
2026-05-08 20:24 48.99364 2.57853 351 ft 111 kts 85°
2026-05-08 20:24 48.99410 2.58790 357 ft 66 kts 85°
2026-05-08 20:25 48.99440 2.59161 352 ft 44 kts 70°
2026-05-08 20:25 48.99557 2.59546 359 ft 21 kts 65°
2026-05-08 20:25 48.99643 2.59697 357 ft 13 kts
2026-05-08 20:25 48.99738 2.59682 353 ft 19 kts 355°
2026-05-08 20:26 48.99864 2.59666 352 ft 31 kts 355°
2026-05-08 20:26 48.99996 2.59649 356 ft 15 kts 355°
2026-05-08 20:26 49.00069 2.59619 356 ft 10 kts 312°
2026-05-08 20:26 49.00084 2.59546 357 ft 1 kts 258°
2026-05-08 20:27 49.00083 2.59542 357 ft 0 kts 258°
2026-05-08 20:27 49.00082 2.59536 353 ft 4 kts 258°
2026-05-08 20:27 49.00072 2.59436 357 ft 12 kts 264°
2026-05-08 20:27 49.00066 2.59308 353 ft 12 kts 265°
2026-05-08 20:28 49.00059 2.59181 359 ft 10 kts 265°
2026-05-08 20:28 49.00058 2.59164 358 ft 0 kts 265°
2026-05-08 20:29 49.00057 2.59145 355 ft 7 kts 265°
2026-05-08 20:29 49.00050 2.59027 353 ft 14 kts 265°
2026-05-08 20:30 49.00042 2.58866 353 ft 16 kts 265°
2026-05-08 20:30 49.00033 2.58684 353 ft 18 kts 265°
2026-05-08 20:30 49.00022 2.58481 353 ft 20 kts 265°
2026-05-08 20:30 49.00009 2.58258 355 ft 22 kts 265°
2026-05-08 20:31 48.99996 2.58008 353 ft 25 kts 265°
2026-05-08 20:31 48.99982 2.57729 353 ft 27 kts 266°
2026-05-08 20:31 48.99965 2.57427 353 ft 30 kts 265°
2026-05-08 20:31 48.99949 2.57107 359 ft 31 kts 265°
2026-05-08 20:32 48.99932 2.56786 353 ft 30 kts 265°
2026-05-08 20:32 48.99915 2.56473 361 ft 29 kts 265°
2026-05-08 20:32 48.99900 2.56189 357 ft 24 kts 265°
2026-05-08 20:32 48.99890 2.55953 353 ft 17 kts 275°
2026-05-08 20:33 48.99909 2.55828 356 ft 12 kts 286°
2026-05-08 20:33 48.99940 2.55711 359 ft 13 kts 308°
2026-05-08 20:33 49.00030 2.55652 356 ft 16 kts 343°
2026-05-08 20:33 49.00158 2.55597 360 ft 22 kts 344°
2026-05-08 20:34 49.00311 2.55529 355 ft 23 kts 343°
2026-05-08 20:34 49.00450 2.55471 353 ft 16 kts 343°
2026-05-08 20:34 49.00620 2.55396 356 ft 0 kts 343°
2026-05-08 20:36 49.00628 2.55392 354 ft 4 kts 343°
2026-05-08 20:36 49.00692 2.55363 361 ft 14 kts 343°
2026-05-08 20:36 49.00800 2.55316 357 ft 18 kts 344°
2026-05-08 20:36 49.00927 2.55263 360 ft 20 kts 344°
2026-05-08 20:37 49.01063 2.55201 358 ft 21 kts 343°
2026-05-08 20:37 49.01212 2.55161 354 ft 23 kts
2026-05-08 20:37 49.01365 2.55206 358 ft 23 kts 348°
2026-05-08 20:37 49.01525 2.55158 360 ft 23 kts 353°
2026-05-08 20:38 49.01683 2.55145 354 ft 22 kts 356°
2026-05-08 20:38 49.01817 2.55129 354 ft 16 kts 350°
2026-05-08 20:38 49.01857 2.55000 358 ft 15 kts 265°
2026-05-08 20:38 49.01848 2.54834 354 ft 17 kts 265°
2026-05-08 20:39 49.01835 2.54619 353 ft 24 kts 264°
2026-05-08 20:39 49.01821 2.54335 353 ft 30 kts 266°
2026-05-08 20:39 49.01804 2.54031 353 ft 24 kts 265°
2026-05-08 20:39 49.01791 2.53789 360 ft 18 kts 265°
2026-05-08 20:40 49.01782 2.53623 353 ft 13 kts 265°
2026-05-08 20:40 49.01774 2.53485 360 ft 13 kts 264°
2026-05-08 20:40 49.01767 2.53351 353 ft 13 kts 266°
2026-05-08 20:40 49.01759 2.53219 353 ft 12 kts 265°
2026-05-08 20:41 49.01753 2.53090 353 ft 12 kts 265°
2026-05-08 20:41 49.01744 2.52964 361 ft 12 kts 255°
2026-05-08 20:41 49.01698 2.52867 353 ft 12 kts 214°
2026-05-08 20:41 49.01649 2.52771 355 ft 13 kts 253°
2026-05-08 20:42 49.01594 2.52649 357 ft 17 kts 215°
2026-05-08 20:42 49.01539 2.52477 356 ft 21 kts 265°
2026-05-08 20:42 49.01525 2.52232 355 ft 25 kts 265°
2026-05-08 20:42 49.01509 2.51946 353 ft 29 kts 265°
2026-05-08 20:43 49.01491 2.51622 356 ft 32 kts 265°
2026-05-08 20:43 49.01475 2.51302 353 ft 29 kts 265°
2026-05-08 20:43 49.01460 2.51009 353 ft 27 kts 265°
2026-05-08 20:43 49.01445 2.50737 353 ft 25 kts 265°
2026-05-08 20:44 49.01431 2.50486 356 ft 22 kts 265°
2026-05-08 20:44 49.01363 2.50380 356 ft 15 kts 176°
2026-05-08 20:44 49.01290 2.50428 357 ft 11 kts 109°
2026-05-08 20:44 49.01299 2.50492 359 ft 5 kts 36°
2026-05-08 20:45 49.01329 2.50496 352 ft 3 kts 358°
2026-05-08 20:45 49.01341 2.50494 352 ft 1 kts 354°
2026-05-08 20:45 49.01351 2.50493 352 ft 0 kts 355°